IST,Max TemperatureF,Mean TemperatureF,Min TemperatureF,Max Dew PointF,MeanDew PointF,Min DewpointF,Max Humidity, Mean Humidity, Min Humidity, Max Sea Level PressureIn, Mean Sea Level PressureIn, Min Sea Level PressureIn, Max VisibilityMiles, Mean VisibilityMiles, Min VisibilityMiles, Max Wind SpeedMPH, Mean Wind SpeedMPH, Max Gust SpeedMPH,PrecipitationIn, CloudCover, Events, WindDirDegrees
2011-10-1,95,86,78,77,73,68,89,67,44,29.89,29.81,29.74,4,3,2,6,4,,0.00,2,,317
2011-10-2,93,86,78,75,71,66,84,62,41,29.86,29.79,29.74,4,3,2,8,3,,0.00,2,,304
2011-10-3,91,84,77,73,70,64,83,63,41,29.86,29.80,29.74,4,3,2,9,3,,0.00,1,,295
2011-10-4,93,85,77,75,69,64,84,60,38,29.86,29.81,29.74,4,3,2,7,4,,0.00,1,,299
2011-10-5,95,86,77,75,71,64,89,61,36,29.92,29.86,29.80,4,3,2,9,4,,0.00,1,,24
2011-10-6,96,86,77,72,69,64,83,57,34,29.98,29.88,29.62,4,3,2,8,3,,0.00,1,,341
2011-10-7,96,86,77,73,70,66,78,57,39,29.95,29.87,29.80,4,3,2,7,2,,0.00,2,,338
2011-10-8,98,88,78,73,70,61,83,58,29,29.95,29.86,29.77,4,3,1,7,4,,0.00,1,,328
2011-10-9,96,87,78,73,70,66,79,56,37,29.95,29.87,29.80,4,3,2,9,3,,0.00,1,,344
2011-10-10,98,89,80,73,68,61,79,53,29,29.95,29.87,29.80,5,3,2,9,3,,0.00,2,,26
2011-10-11,98,88,78,73,66,59,74,51,28,29.95,29.88,29.80,4,3,2,7,2,,0.00,2,,66
2011-10-12,98,88,77,73,65,54,70,49,22,29.95,29.87,29.77,4,3,2,7,4,,0.00,,,48
2011-10-13,100,89,78,73,66,55,79,49,24,29.86,29.82,29.74,4,3,1,7,3,,0.00,4,,69
2011-10-14,98,91,84,75,70,64,70,53,32,29.86,29.79,29.74,4,3,1,8,2,,0.00,4,,41
2011-10-15,100,89,78,75,68,57,74,52,24,29.83,29.77,29.68,4,3,2,7,3,,0.00,3,,43
2011-10-16,100,89,78,75,69,61,79,55,27,29.80,29.76,29.68,4,2,1,6,3,,0.00,3,,47
2011-10-17,98,91,84,81,73,66,79,59,37,29.83,29.78,29.71,3,2,1,6,4,,0.00,1,,37
2011-10-18,100,89,78,77,66,55,79,53,22,29.89,29.81,29.74,4,3,2,9,2,,0.00,2,,52
2011-10-19,98,86,73,68,56,43,69,41,16,29.86,29.77,29.71,4,3,2,7,2,,0.00,2,,106
2011-10-20,98,84,71,68,61,46,78,48,18,29.83,29.77,29.71,4,2,1,6,2,,0.00,1,,30
2011-10-21,98,86,73,72,63,52,73,49,22,29.89,29.81,29.74,3,2,1,52,1,,0.00,1,,7
2011-10-22,98,86,73,72,62,46,83,49,17,29.89,29.83,29.77,4,2,1,6,1,,0.00,1,,56
2011-10-23,100,84,69,70,59,43,78,49,15,29.95,29.87,29.80,4,3,2,6,2,,0.00,,,72
2011-10-24,98,84,71,68,60,48,78,50,18,29.95,29.88,29.80,4,3,1,6,3,,0.00,,,54
2011-10-25,98,86,73,68,60,50,78,47,19,29.92,29.85,29.77,4,3,2,9,2,,0.00,1,,46
2011-10-26,96,84,71,66,60,52,73,46,22,29.95,29.87,29.80,4,3,2,10,2,,0.00,,,78
2011-10-27,95,82,69,64,60,54,73,53,25,29.95,29.88,29.83,4,3,2,9,3,,0.00,1,,66
2011-10-28,96,82,68,64,58,52,78,50,23,29.95,29.87,29.77,4,2,1,7,4,,0.00,,,67
2011-10-29,96,82,69,64,58,50,73,46,22,29.92,29.85,29.77,4,3,1,7,4,,0.00,1,,66
2011-10-30,91,80,69,68,60,54,69,51,29,29.89,29.82,29.77,3,3,2,8,2,,0.00,1,,73
2011-10-31,96,84,71,66,60,48,78,52,19,29.89,29.83,29.77,3,2,2,6,2,,0.00,2,,58